Wind_Speed
35 38 36 38 35 30 27 26 25 27 32 39 43 39 32 27 24 22 20 18 20 15 17 19 13 15 14 8 4 11 12 17 13 11 14 18 19 14 14 16 14 9 28 31
33 35 40 41 38 36 33 31 27 26 27 30 35 41 37 32 26 24 20 18 16 15 13 17 15 11 13 12 5 12 17 17 16 14 20 21 16 17 12 12 10 30 30 31
33 35 37 39 41 40 39 37 34 31 28 27 29 33 36 35 31 28 23 21 16 14 9 13 15 7 12 12 8 12 20 19 18 18 23 20 19 14 10 15 30 31 36 32
32 33 35 38 39 43 43 41 40 36 32 28 27 30 33 36 35 31 29 26 20 15 6 10 14 10 8 9 8 11 22 21 20 23 25 16 14 11 17 28 33 37 34 26
30 33 35 36 38 39 42 43 43 41 38 35 29 29 30 35 39 37 31 27 21 16 6 7 12 13 4 9 6 8 22 26 24 25 23 19 14 20 30 30 36 37 28 24
28 29 32 33 35 37 38 42 43 43 42 39 36 33 29 29 36 37 35 30 22 18 10 9 8 13 6 6 6 8 14 30 28 27 23 20 19 26 28 33 37 35 24 24
24 27 29 30 31 33 35 38 41 44 44 43 40 36 32 31 30 33 35 33 27 22 12 10 7 9 13 4 5 4 9 20 28 30 28 27 24 28 28 31 32 29 23 19
19 23 25 26 29 31 33 37 39 41 44 44 42 39 36 35 32 29 35 32 28 25 17 14 8 8 10 9 3 2 6 17 26 31 31 29 29 30 30 28 31 30 23 18
18 20 23 26 28 30 32 34 36 38 39 42 42 41 38 37 36 34 35 37 32 30 25 16 14 6 9 11 5 4 3 13 23 31 31 32 30 29 30 27 27 28 24 20
20 20 22 24 27 30 30 32 34 34 35 36 38 41 41 41 38 38 36 40 39 35 32 27 20 11 11 14 9 6 7 9 19 29 34 32 35 32 28 24 24 24 24 21
21 19 20 23 25 27 27 28 28 29 31 33 36 39 40 42 43 39 40 39 41 39 37 32 25 16 17 17 16 9 9 11 14 23 29 33 36 35 31 30 25 23 23 18
19 19 19 20 21 22 22 23 24 26 27 29 33 37 39 40 43 45 43 44 42 42 41 38 35 24 23 21 18 16 11 11 12 16 20 24 30 32 31 29 24 21 19 18
17 20 20 19 19 20 22 23 24 25 25 26 29 32 36 39 42 46 48 48 47 45 45 41 39 35 31 27 23 23 17 13 12 15 14 18 21 23 22 20 18 19 20 20
20 20 25 24 20 19 18 20 21 25 27 27 27 28 30 32 37 44 47 49 52 51 51 49 45 44 41 36 29 29 22 21 16 16 16 16 18 20 22 22 20 19 19 21
23 21 24 29 28 26 22 20 21 22 24 26 27 28 28 31 32 37 44 50 52 55 53 54 50 50 47 44 39 35 30 27 23 20 17 17 17 18 18 18 19 19 21 22
26 24 23 29 32 32 30 26 27 26 26 28 30 31 30 29 31 33 37 46 51 54 57 55 56 55 52 48 44 38 35 29 27 26 21 20 20 17 14 15 18 21 24 23
30 27 26 24 32 32 33 29 28 28 29 31 32 29 32 33 32 31 35 38 46 53 57 58 56 56 55 50 47 44 40 34 34 33 28 26 24 22 21 19 19 19 23 25
35 31 28 26 27 32 27 27 26 25 27 26 28 29 31 33 35 36 37 38 41 47 57 60 60 58 56 53 50 50 47 42 39 37 35 33 32 29 27 26 24 24 24 25
40 37 32 30 27 27 28 25 26 26 25 26 26 25 26 29 30 33 39 39 40 44 49 58 62 62 62 58 55 56 53 49 46 43 40 39 37 34 33 33 30 28 26 26
40 40 35 33 31 31 28 26 27 29 29 30 26 25 28 28 29 29 33 38 41 41 46 51 60 64 65 64 61 60 60 58 54 51 45 44 41 40 37 39 35 34 34 32
46 42 38 36 34 31 28 27 30 32 30 27 25 25 27 28 29 29 31 33 36 42 41 48 53 62 66 69 67 65 65 64 60 58 53 49 47 45 43 42 41 42 39 39
48 45 43 38 34 34 30 29 28 28 28 26 27 27 27 27 26 27 26 29 32 36 41 42 48 56 64 70 71 69 71 70 67 65 62 56 53 52 50 48 46 44 45 44
46 46 43 43 37 33 35 30 28 24 23 25 25 26 27 27 25 20 20 23 25 31 37 41 45 49 56 66 73 76 72 74 75 72 70 66 62 59 57 54 51 50 50 49
49 48 45 44 41 37 34 31 27 24 24 25 27 26 26 28 23 20 19 18 20 24 30 35 42 47 52 58 66 74 79 77 78 78 77 73 68 67 64 61 59 58 54 53
51 50 47 44 43 41 37 29 30 26 21 22 23 23 23 26 27 26 23 21 21 20 23 29 36 43 50 53 57 64 75 82 82 79 80 82 79 76 74 71 68 65 62 58
51 50 51 47 43 41 37 31 31 30 27 24 23 23 25 26 26 25 26 26 27 29 27 25 30 36 43 50 55 57 62 70 81 84 85 85 85 84 83 81 75 73 70 66
Wind_Direction
248 245 241 238 239 238 238 236 233 230 228 232 235 239 242 243 253 261 268 293 313 332 341 354 10 19 29 58 125 186 199 195 185 171 163 158 154 167 176 174 184 187 159 152
247 244 242 240 239 237 236 235 231 228 231 226 229 233 238 241 245 245 260 282 306 316 331 348 3 26 35 56 76 178 184 180 172 176 161 158 160 167 165 179 183 154 155 151
246 244 242 240 236 234 232 234 233 228 226 227 229 229 229 236 240 241 255 267 286 301 323 336 360 19 40 48 83 165 175 172 165 163 157 163 159 175 192 164 152 157 148 141
247 244 242 240 238 235 231 231 232 232 230 227 224 229 227 224 231 237 249 260 268 287 297 315 344 358 55 43 70 150 171 167 161 157 158 163 172 184 166 156 158 163 154 146
249 243 241 238 238 237 234 230 231 232 232 232 228 227 229 227 226 232 240 251 256 262 239 296 324 348 55 66 51 113 175 169 168 158 161 165 163 155 153 158 161 163 156 144
250 244 241 240 237 236 233 230 230 231 231 233 232 228 228 229 228 227 230 237 244 247 214 265 307 333 30 72 73 117 151 173 174 177 178 168 160 152 154 164 166 167 168 159
246 239 237 236 234 232 231 228 228 230 230 230 231 232 229 229 229 226 226 229 233 235 219 238 285 319 352 19 82 100 138 164 177 181 173 173 162 162 166 171 177 177 169 176
247 241 237 237 234 230 230 228 228 230 230 230 228 231 230 229 229 231 220 222 226 230 224 224 244 305 337 347 5 14 140 162 179 184 178 177 171 166 173 179 187 184 189 196
250 245 240 235 230 230 230 230 228 228 230 232 230 228 229 229 228 230 227 218 218 225 229 224 218 248 297 324 299 289 217 156 180 188 183 178 175 174 172 175 184 195 201 205
248 245 241 239 232 228 229 231 230 228 227 228 231 230 229 229 228 225 228 220 217 220 225 228 216 229 262 290 301 235 230 201 170 190 193 186 188 187 190 195 197 205 206 206
247 240 240 234 234 231 227 228 231 230 227 226 229 229 229 229 229 227 224 226 222 219 228 227 214 221 249 267 287 258 225 223 194 177 191 196 195 196 201 205 203 208 212 221
250 238 232 228 226 227 230 228 226 224 224 223 227 230 227 227 228 227 227 224 223 222 225 226 225 226 244 256 268 265 234 233 228 210 195 198 203 204 204 208 218 219 216 218
258 233 229 219 222 225 229 229 230 229 228 225 224 227 226 225 225 226 226 225 225 221 220 223 226 231 237 247 257 255 245 220 227 231 222 218 224 222 222 224 224 226 220 215
255 238 229 229 222 220 225 227 224 224 227 229 230 230 232 229 224 224 224 226 225 225 222 226 228 231 238 240 244 246 231 226 212 208 207 203 203 217 225 222 214 205 199 199
251 245 233 231 230 228 227 230 233 227 225 227 225 227 226 227 227 224 222 222 225 225 225 224 226 231 235 240 246 232 228 225 215 204 199 195 192 190 189 185 178 175 179 179
243 249 242 234 233 234 237 232 232 234 234 234 233 229 227 232 228 228 227 222 223 225 225 225 225 230 236 237 237 221 225 223 227 220 213 213 207 202 182 174 172 170 172 175
241 239 241 243 238 235 238 239 235 237 240 243 245 236 235 229 233 232 231 230 224 223 225 226 226 226 228 230 229 215 219 222 221 221 215 218 215 214 209 205 195 186 175 177
242 240 239 237 240 239 236 239 238 240 242 245 247 246 242 241 235 236 239 234 232 226 223 224 225 226 227 229 224 215 215 221 223 222 219 220 221 222 217 214 214 207 199 195
237 239 236 236 235 239 237 233 236 234 241 250 256 256 250 243 238 237 235 236 235 232 227 224 225 224 224 227 227 216 216 220 222 220 220 225 225 222 223 217 217 221 219 216
240 235 236 233 233 236 238 237 241 243 250 254 254 253 248 245 243 241 238 234 234 236 229 228 226 224 223 224 227 221 219 219 224 221 222 221 224 221 220 222 222 223 223 223
240 236 233 234 233 235 241 243 246 244 248 256 257 245 237 246 249 248 248 247 240 235 233 228 228 226 223 224 225 224 225 222 222 221 221 222 222 221 223 223 225 227 229 230
240 240 233 230 234 236 237 243 241 241 244 248 247 240 242 243 243 246 254 258 253 245 239 235 230 228 226 224 226 226 225 224 226 225 223 221 224 224 223 226 227 228 230 232
238 238 237 230 230 235 238 240 237 237 242 244 237 235 236 237 234 235 247 255 260 256 248 239 236 233 229 228 226 227 228 227 226 226 225 224 226 229 230 228 230 231 231 233
239 239 240 237 231 236 240 238 239 237 238 239 238 233 233 223 234 241 254 265 270 268 259 248 241 238 233 229 229 228 228 229 229 228 228 229 230 227 230 235 235 234 234 234
239 239 237 237 232 234 240 237 236 229 228 228 228 233 237 234 240 250 250 263 270 282 275 263 254 245 240 238 232 230 229 230 231 232 230 229 232 230 231 238 239 236 236 235
237 237 237 234 230 232 238 234 237 229 227 231 237 241 244 244 249 259 262 263 265 274 283 277 262 257 249 243 239 236 234 232 231 231 233 234 234 234 235 239 238 237 237 239
Height
10887 10891 10894 10896 10900 10905 10910 10913 10917 10920 10924 10928 10933 10936 10941 10944 10946 10948 10948 10947 10946 10945 10944 10942 10938 10935 10931 10928 10929 10932 10935 10939 10942 10944 10945 10948 10951 10953 10954 10955 10957 10958 10959 10963
10879 10881 10883 10888 10894 10899 10903 10906 10911 10914 10917 10921 10924 10929 10934 10939 10942 10944 10946 10946 10945 10945 10944 10942 10941 10936 10932 10930 10929 10931 10935 10939 10942 10944 10946 10949 10951 10953 10955 10956 10958 10960 10963 10967
10870 10872 10876 10879 10884 10890 10894 10898 10902 10907 10911 10915 10919 10922 10928 10933 10937 10941 10942 10944 10944 10944 10943 10941 10941 10938 10933 10932 10931 10932 10936 10940 10943 10944 10948 10950 10951 10954 10956 10957 10959 10963 10967 10970
10862 10865 10867 10870 10875 10879 10884 10891 10896 10900 10905 10910 10913 10916 10921 10926 10930 10935 10938 10940 10942 10943 10942 10941 10940 10941 10936 10933 10933 10933 10935 10940 10944 10946 10950 10951 10953 10953 10955 10957 10961 10966 10971 10973
10854 10855 10858 10862 10866 10870 10876 10882 10887 10893 10898 10902 10908 10911 10915 10918 10923 10928 10933 10936 10938 10941 10941 10941 10939 10940 10937 10934 10934 10934 10935 10938 10944 10947 10950 10951 10953 10954 10955 10959 10963 10968 10973 10975
10845 10848 10850 10853 10858 10862 10866 10872 10878 10884 10889 10894 10900 10904 10909 10912 10916 10922 10928 10932 10935 10937 10939 10939 10938 10937 10938 10936 10935 10935 10936 10937 10942 10946 10949 10954 10955 10957 10959 10962 10966 10969 10975 10977
10838 10840 10843 10845 10850 10853 10858 10862 10868 10874 10880 10886 10892 10898 10903 10907 10910 10915 10921 10926 10930 10933 10935 10937 10938 10936 10936 10938 10936 10935 10937 10938 10941 10945 10949 10954 10956 10959 10962 10965 10969 10972 10975 10979
10833 10835 10838 10840 10842 10846 10850 10855 10860 10864 10870 10877 10884 10890 10896 10900 10904 10908 10913 10919 10924 10928 10931 10934 10936 10935 10935 10937 10939 10938 10938 10939 10941 10946 10949 10953 10957 10959 10963 10967 10970 10973 10975 10979
10829 10830 10832 10834 10836 10839 10843 10847 10853 10857 10862 10869 10876 10883 10888 10892 10897 10902 10907 10912 10918 10923 10927 10931 10934 10934 10934 10937 10938 10939 10940 10940 10943 10946 10950 10952 10955 10960 10963 10967 10971 10974 10976 10979
10825 10825 10826 10828 10831 10834 10837 10840 10846 10852 10857 10862 10867 10872 10879 10884 10889 10896 10899 10905 10911 10917 10921 10926 10930 10931 10933 10934 10936 10938 10940 10941 10943 10945 10948 10951 10954 10958 10963 10967 10969 10971 10974 10976
10819 10821 10822 10823 10825 10828 10832 10835 10840 10845 10850 10855 10858 10864 10870 10875 10881 10887 10892 10897 10903 10910 10915 10920 10925 10927 10930 10932 10935 10936 10938 10941 10942 10944 10947 10950 10953 10956 10960 10963 10967 10970 10972 10974
10815 10817 10817 10819 10821 10823 10827 10830 10834 10838 10842 10847 10850 10855 10860 10867 10872 10878 10884 10889 10895 10901 10907 10913 10919 10923 10927 10929 10932 10934 10937 10939 10942 10944 10947 10950 10953 10955 10957 10959 10962 10965 10968 10971
10810 10812 10814 10815 10817 10820 10823 10826 10829 10832 10835 10839 10843 10846 10852 10858 10863 10867 10874 10880 10886 10893 10899 10904 10910 10915 10921 10926 10929 10932 10934 10937 10939 10941 10943 10947 10950 10952 10953 10954 10956 10959 10962 10965
10804 10807 10809 10811 10814 10817 10819 10821 10823 10826 10829 10832 10836 10839 10844 10848 10853 10858 10864 10870 10876 10883 10890 10896 10901 10908 10914 10919 10924 10928 10930 10932 10935 10937 10939 10941 10945 10948 10950 10950 10952 10955 10958 10960
10797 10800 10803 10806 10808 10811 10814 10816 10818 10821 10824 10826 10830 10832 10837 10840 10844 10848 10853 10859 10865 10872 10879 10887 10893 10899 10906 10911 10917 10922 10925 10928 10930 10934 10936 10940 10942 10943 10945 10946 10948 10951 10955 10958
10790 10793 10796 10798 10800 10804 10807 10810 10812 10814 10817 10819 10822 10825 10830 10832 10836 10840 10845 10849 10855 10861 10868 10875 10883 10889 10895 10902 10908 10916 10920 10923 10926 10929 10933 10938 10940 10942 10943 10946 10947 10947 10950 10955
10781 10785 10788 10790 10792 10796 10799 10803 10806 10809 10810 10812 10814 10820 10822 10826 10829 10832 10836 10839 10844 10849 10855 10862 10870 10877 10884 10891 10899 10906 10912 10916 10919 10922 10926 10931 10937 10939 10941 10944 10946 10949 10950 10952
10772 10776 10780 10783 10785 10787 10792 10796 10799 10801 10803 10806 10808 10811 10815 10818 10821 10824 10826 10830 10834 10837 10842 10849 10856 10864 10872 10879 10888 10894 10902 10907 10911 10915 10919 10924 10928 10933 10937 10939 10942 10946 10948 10951
10761 10766 10771 10775 10778 10782 10784 10789 10792 10795 10797 10799 10801 10803 10805 10807 10810 10812 10815 10819 10823 10827 10832 10837 10843 10852 10860 10868 10875 10882 10890 10896 10902 10906 10911 10915 10920 10925 10929 10933 10937 10941 10943 10946
10750 10756 10763 10767 10770 10774 10778 10783 10786 10789 10791 10792 10793 10795 10795 10798 10800 10803 10804 10808 10812 10816 10821 10825 10830 10838 10847 10854 10861 10869 10877 10883 10890 10896 10901 10907 10912 10916 10921 10926 10930 10935 10938 10940
10739 10745 10751 10756 10761 10765 10769 10774 10777 10780 10784 10784 10785 10785 10786 10788 10790 10793 10795 10797 10801 10805 10810 10814 10819 10825 10833 10840 10847 10855 10862 10869 10878 10884 10890 10896 10902 10908 10912 10918 10922 10926 10930 10934
10728 10734 10741 10746 10752 10756 10760 10764 10767 10771 10774 10775 10776 10777 10780 10780 10782 10784 10786 10788 10790 10794 10799 10803 10807 10812 10818 10825 10833 10840 10848 10855 10862 10871 10878 10885 10891 10897 10901 10907 10911 10916 10921 10925
10717 10724 10730 10736 10741 10746 10750 10755 10759 10762 10763 10765 10767 10769 10771 10772 10774 10777 10779 10780 10781 10782 10785 10791 10795 10800 10805 10810 10817 10825 10832 10841 10848 10855 10863 10871 10877 10883 10889 10895 10899 10903 10909 10914
10706 10712 10719 10724 10731 10735 10740 10746 10751 10753 10755 10757 10759 10761 10762 10765 10767 10770 10771 10772 10773 10773 10774 10778 10781 10786 10790 10796 10802 10808 10815 10822 10831 10839 10847 10854 10862 10869 10874 10880 10886 10891 10896 10900
10695 10700 10708 10713 10719 10725 10731 10737 10741 10744 10747 10750 10752 10754 10756 10759 10761 10763 10764 10765 10766 10767 10767 10767 10769 10771 10774 10780 10786 10792 10799 10804 10812 10820 10828 10836 10844 10851 10858 10864 10871 10876 10882 10887
10680 10689 10693 10701 10708 10716 10721 10727 10732 10736 10739 10742 10745 10747 10749 10752 10754 10756 10757 10757 10758 10758 10759 10759 10758 10759 10760 10763 10768 10775 10780 10786 10793 10802 10808 10816 10825 10832 10839 10845 10853 10861 10867 10870